Tracking 30995 objects as of 7-Jul-2025
HD Live streaming from Space Station
objects crossing your sky now

FREGAT R/B

Track FREGAT R/B now!


NORAD ID: 42720
Int'l Code: 2017-027B
Perigee: 919.8 km
Apogee: 39,211.2 km
Inclination: 62.7 °
Period: 713.0 minutes
Semi major axis: 26436 km
RCS: Unknown
Launch date: May 25, 2017
Source: Commonwealth of Independent States (former USSR) (CIS)
Launch site: PLESETSK MISSILE AND SPACE COMPLEX (PKMTR)

Note: This is a ROCKET BODY
Your satellite tracking list
DELTA 1 DEB
Track 1 satellite(s)




NASA's NSSDC Master Catalog

Two Line Element Set (TLE):
1 42720U 17027B   25186.30794435 -.00000276  00000-0  21618-2 0  9995
2 42720  62.6626 280.2543 7242140 265.0390  16.8610  2.01974909 59821
Source of the keplerian elements: AFSPC